When you browse on this site, cookies collect data to enhance your experience and personalize the content and advertising you see.
Visit our Privacy Policy to learn more. By continuing to use the site, you agree to this use of cookies and data.
  • In Austria
  • List of Countries
  • For 7 days
  • Water Temperature
  • Satellite Maps
  • Weather Map
  • News
  • Weather Widgets
  • user-avatar
    Login

    Hourly Weather Yulara

    Today, 19 January, Saturday

    Time Temperature Precipitation Wind Pressure Humidity
    00:00 +29°C° 0.3 mm 9 mps 717 mmHg 50%
    01:00 +29°C° 0 mm 9 mps 717 mmHg 50%
    02:00 +29°C° 0 mm 8 mps 716 mmHg 51%
    03:00 +29°C° 0 mm 7 mps 717 mmHg 50%
    04:00 +29°C° 0 mm 7 mps 717 mmHg 50%
    05:00 +29°C° 0 mm 7 mps 717 mmHg 50%
    06:00 +29°C° 0 mm 7 mps 717 mmHg 51%
    07:00 +31°C° 0 mm 8 mps 717 mmHg 47%
    08:00 +32°C° 0 mm 9 mps 718 mmHg 43%
    09:00 +34°C° 0 mm 10 mps 718 mmHg 39%
    10:00 +37°C° 0 mm 9 mps 718 mmHg 34%
    11:00 +39°C° 0 mm 8 mps 717 mmHg 29%
    12:00 +41°C° 0 mm 8 mps 717 mmHg 23%
    13:00 +44°C° 0 mm 7 mps 717 mmHg 21%
    14:00 +45°C° 0 mm 6 mps 716 mmHg 18%
    15:00 +46°C° 0 mm 5 mps 716 mmHg 16%
    16:00 +45°C° 0 mm 5 mps 715 mmHg 17%
    17:00 +44°C° 0 mm 6 mps 715 mmHg 17%
    18:00 +44°C° 0 mm 6 mps 715 mmHg 18%
    19:00 +41°C° 0.3 mm 6 mps 716 mmHg 22%
    20:00 +39°C° 0.3 mm 6 mps 716 mmHg 26%
    21:00 +37°C° 0.3 mm 5 mps 717 mmHg 29%
    22:00 +36°C° 0 mm 7 mps 717 mmHg 32%
    23:00 +35°C° 0 mm 8 mps 717 mmHg 35%

    Tomorrow, 20 January, Sunday

    Time Temperature Precipitation Wind Pressure Humidity
    00:00 +34°C° 0 mm 10 mps 717 mmHg 38%
    01:00 +34°C° 0 mm 10 mps 717 mmHg 37%
    02:00 +33°C° 0 mm 9 mps 716 mmHg 37%
    03:00 +33°C° 0 mm 9 mps 716 mmHg 36%
    04:00 +33°C° 0 mm 9 mps 716 mmHg 34%
    05:00 +33°C° 0 mm 8 mps 717 mmHg 31%
    06:00 +33°C° 0 mm 8 mps 717 mmHg 29%
    07:00 +34°C° 0 mm 8 mps 717 mmHg 26%
    08:00 +37°C° 0 mm 9 mps 718 mmHg 24%
    09:00 +38°C° 0 mm 10 mps 718 mmHg 21%
    10:00 +42°C° 0 mm 9 mps 718 mmHg 18%
    11:00 +44°C° 0 mm 8 mps 718 mmHg 15%
    12:00 +46°C° 0 mm 7 mps 717 mmHg 12%
    13:00 +46°C° 0 mm 7 mps 716 mmHg 11%
    14:00 +47°C° 0 mm 6 mps 716 mmHg 10%
    15:00 +48°C° 0 mm 6 mps 715 mmHg 9%
    16:00 +47°C° 0 mm 6 mps 715 mmHg 9%
    17:00 +47°C° 0 mm 6 mps 715 mmHg 9%
    18:00 +47°C° 0 mm 6 mps 714 mmHg 9%
    19:00 +45°C° 0 mm 8 mps 715 mmHg 12%
    20:00 +43°C° 0 mm 10 mps 715 mmHg 16%
    21:00 +41°C° 0 mm 12 mps 715 mmHg 19%
    22:00 +39°C° 0 mm 12 mps 716 mmHg 18%
    23:00 +39°C° 0 mm 12 mps 716 mmHg 18%

    Day after tomorrow, 21 January, Monday

    Time Temperature Precipitation Wind Pressure Humidity
    00:00 +39°C° 0 mm 12 mps 716 mmHg 17%
    01:00 +38°C° 0 mm 12 mps 716 mmHg 18%
    02:00 +37°C° 0 mm 11 mps 715 mmHg 19%
    03:00 +36°C° 0 mm 10 mps 715 mmHg 20%
    04:00 +35°C° 0 mm 9 mps 715 mmHg 21%
    05:00 +34°C° 0 mm 8 mps 715 mmHg 22%
    06:00 +34°C° 0 mm 7 mps 715 mmHg 23%
    07:00 +37°C° 0 mm 8 mps 716 mmHg 21%
    08:00 +39°C° 0 mm 8 mps 716 mmHg 18%
    09:00 +43°C° 0 mm 9 mps 717 mmHg 15%
    10:00 +44°C° 0 mm 7 mps 716 mmHg 14%
    11:00 +45°C° 0 mm 6 mps 716 mmHg 13%
    12:00 +46°C° 0 mm 5 mps 715 mmHg 12%
    13:00 +45°C° 0 mm 4 mps 715 mmHg 12%
    14:00 +45°C° 0 mm 4 mps 714 mmHg 11%
    15:00 +45°C° 0 mm 4 mps 713 mmHg 11%
    16:00 +45°C° 0 mm 4 mps 713 mmHg 11%
    17:00 +45°C° 0 mm 4 mps 713 mmHg 11%
    18:00 +45°C° 0 mm 5 mps 713 mmHg 12%
    19:00 +43°C° 0 mm 4 mps 714 mmHg 13%
    20:00 +43°C° 0 mm 4 mps 715 mmHg 13%
    21:00 +42°C° 0 mm 4 mps 715 mmHg 14%
    22:00 +40°C° 0 mm 4 mps 715 mmHg 16%
    23:00 +39°C° 0 mm 5 mps 715 mmHg 18%

    22 January, Tuesday

    Time Temperature Precipitation Wind Pressure Humidity
    00:00 +38°C° 0 mm 6 mps 715 mmHg 20%
    01:00 +38°C° 0 mm 6 mps 715 mmHg 20%
    02:00 +37°C° 0 mm 5 mps 714 mmHg 20%
    03:00 +36°C° 0 mm 5 mps 714 mmHg 20%
    04:00 +36°C° 0 mm 5 mps 714 mmHg 20%
    05:00 +35°C° 0 mm 5 mps 715 mmHg 20%
    06:00 +35°C° 0 mm 5 mps 715 mmHg 20%
    07:00 +37°C° 0 mm 5 mps 715 mmHg 18%
    08:00 +40°C° 0 mm 5 mps 716 mmHg 16%
    09:00 +42°C° 0 mm 5 mps 716 mmHg 15%
    10:00 +43°C° 0 mm 4 mps 716 mmHg 14%
    11:00 +44°C° 0 mm 4 mps 715 mmHg 13%
    12:00 +45°C° 0 mm 4 mps 715 mmHg 12%
    13:00 +45°C° 0 mm 4 mps 714 mmHg 11%
    14:00 +46°C° 0 mm 5 mps 714 mmHg 11%
    15:00 +46°C° 0 mm 5 mps 713 mmHg 10%
    16:00 +46°C° 0 mm 5 mps 713 mmHg 11%
    17:00 +46°C° 0 mm 5 mps 713 mmHg 11%
    18:00 +45°C° 0 mm 5 mps 713 mmHg 12%
    19:00 +43°C° 0.1 mm 5 mps 714 mmHg 13%
    20:00 +42°C° 0.1 mm 4 mps 714 mmHg 14%
    21:00 +41°C° 0.1 mm 4 mps 715 mmHg 16%
    22:00 +40°C° 0.1 mm 4 mps 715 mmHg 17%
    23:00 +38°C° 0.1 mm 4 mps 715 mmHg 19%

    23 January, Wednesday

    Time Temperature Precipitation Wind Pressure Humidity
    00:00 +37°C° 0.1 mm 4 mps 715 mmHg 21%
    01:00 +37°C° 0.2 mm 4 mps 714 mmHg 22%
    02:00 +36°C° 0.2 mm 3 mps 714 mmHg 23%
    03:00 +35°C° 0.2 mm 3 mps 714 mmHg 24%
    04:00 +34°C° 0.1 mm 4 mps 714 mmHg 26%
    05:00 +34°C° 0.1 mm 4 mps 714 mmHg 28%
    06:00 +33°C° 0.1 mm 4 mps 714 mmHg 30%
    07:00 +36°C° 0 mm 5 mps 715 mmHg 27%
    08:00 +39°C° 0 mm 6 mps 715 mmHg 23%
    09:00 +41°C° 0 mm 7 mps 716 mmHg 19%
    10:00 +42°C° 0 mm 6 mps 715 mmHg 18%
    11:00 +45°C° 0 mm 6 mps 715 mmHg 16%
    12:00 +46°C° 0 mm 5 mps 714 mmHg 14%
    13:00 +45°C° 0 mm 4 mps 714 mmHg 14%
    14:00 +45°C° 0 mm 4 mps 713 mmHg 13%
    15:00 +45°C° 0 mm 3 mps 712 mmHg 13%
    16:00 +45°C° 0 mm 3 mps 712 mmHg 13%
    17:00 +45°C° 0 mm 3 mps 712 mmHg 13%
    18:00 +45°C° 0 mm 3 mps 712 mmHg 13%
    19:00 +44°C° 0.2 mm 3 mps 713 mmHg 15%
    20:00 +43°C° 0.2 mm 3 mps 713 mmHg 17%
    21:00 +42°C° 0.2 mm 3 mps 714 mmHg 19%
    22:00 +40°C° 0.2 mm 3 mps 714 mmHg 21%
    23:00 +39°C° 0.2 mm 3 mps 714 mmHg 23%

    24 January, Thursday

    Time Temperature Precipitation Wind Pressure Humidity
    00:00 +38°C° 0.2 mm 3 mps 714 mmHg 25%
    01:00 +37°C° 0.1 mm 3 mps 713 mmHg 27%
    02:00 +36°C° 0.1 mm 3 mps 713 mmHg 29%
    03:00 +35°C° 0.1 mm 2 mps 713 mmHg 31%
    04:00 +35°C° 0 mm 3 mps 713 mmHg 32%
    05:00 +34°C° 0 mm 3 mps 713 mmHg 33%
    06:00 +34°C° 0 mm 4 mps 713 mmHg 34%
    07:00 +36°C° 0 mm 4 mps 713 mmHg 30%
    08:00 +38°C° 0 mm 4 mps 713 mmHg 26%
    09:00 +41°C° 0 mm 4 mps 714 mmHg 21%
    10:00 +42°C° 0 mm 4 mps 713 mmHg 19%
    11:00 +44°C° 0 mm 3 mps 713 mmHg 17%
    12:00 +45°C° 0 mm 3 mps 713 mmHg 15%
    13:00 +45°C° 0 mm 3 mps 712 mmHg 14%
    14:00 +45°C° 0 mm 2 mps 712 mmHg 13%
    15:00 +46°C° 0 mm 2 mps 711 mmHg 13%
    16:00 +45°C° 0 mm 2 mps 711 mmHg 13%
    17:00 +45°C° 0 mm 3 mps 712 mmHg 13%
    18:00 +45°C° 0 mm 3 mps 712 mmHg 13%
    19:00 +44°C° 0 mm 3 mps 712 mmHg 15%
    20:00 +43°C° 0 mm 3 mps 713 mmHg 17%
    21:00 +40°C° 0 mm 2 mps 713 mmHg 18%
    22:00 +40°C° 0.1 mm 3 mps 713 mmHg 20%
    23:00 +40°C° 0.1 mm 4 mps 713 mmHg 22%
    Show more